Location: Caltech
(34.1382°N, 118.1253°W)
Time: 06:16:58
(UTC-07:00)

Cosmos 1484 Rocket - Visible Passes

Search period start: 31 August 2015 00:00
Search period end: 10 September 2015 00:00
Orbit: 511 x 566 km, 97.4° (Epoch: 30 August)

Date Brightness Start Highest point End Pass type
(mag) Time Alt. Az. Time Alt. Az. Time Alt. Az.
31 Aug 5.8 20:47:21 10° SW 20:49:58 16° W 20:52:26 10° NW visible
01 Sep 5.6 20:39:05 10° SW 20:42:08 20° W 20:45:05 10° NW visible
02 Sep 5.2 20:30:56 10° SSW 20:34:18 25° W 20:37:37 10° NW visible
03 Sep 4.8 20:22:52 10° SSW 20:26:29 31° W 20:30:04 10° NW visible
04 Sep 4.4 20:14:53 10° SSW 20:18:40 38° W 20:22:28 10° NNW visible
05 Sep 3.9 20:06:58 10° S 20:10:53 49° W 20:14:48 10° NNW visible
06 Sep 3.4 19:59:06 10° S 20:03:05 62° W 20:07:05 10° NNW visible
07 Sep 3.0 19:51:16 10° S 19:55:18 80° WSW 19:59:21 10° NNW visible
08 Sep 2.8 19:43:30 10° SSE 19:47:31 81° E 19:51:34 10° N visible
09 Sep 2.9 19:35:46 10° SSE 19:39:45 64° ENE 19:43:45 10° N visible
